Starlink 11409

operational
NORAD ID: 63061 Int'l Des: 2025-035 Owner: SPXS Country: US Constellation: starlink
LEOCIRCULAR

Starlink 11409について

説明を読み込み中...

リアルタイム位置

3D地球を読み込み中...

次回通過

高度履歴

Altitude vs Time

uPlot chart will show altitude changes over time

軌道要素

1 63061U 25035K 25350.17132734 .00182969 00000-0 13960-2 0 9990
2 63061 42.9984 158.9357 0000933 290.1309 69.9458 15.70879104 48084
Epoch: Dec 16, 2025 • Age: 23 hours

現在のステータス

高度 356.2 km
速度 7.70 km/s
衛星直下点 30.06°N, 57.27°E
打ち上げ日 Feb 21, 2025
運用期間 0.8 years
タイプ internet

技術仕様

分類 Payload
質量 960.00 kg
乾燥質量 910.00 kg
総質量 960.00 kg
長さ 0.30 m
直径 4.10 m
スパン 29.00 m
形状 Box + pan
製造者 SPXS
バスタイプ Starlink V2MD
フェーズステータス In Orbit
所有者/国 SPXS/US

大規模コンステレーション

Loading constellations...